Weather History for KGMU - March, 2012

Change the Weather History Date:

Tuesday, March 27, 2012

  Actual Average Record
Temperature  
Mean Temperature 61 °F -  
Max Temperature 70 °F 65 °F 81 °F (2007)
Min Temperature 52 °F 45 °F 28 °F (2013)
Degree Days  
Heating Degree Days 4    
Growing Degree Days 11 (Base 50)    
Moisture  
Dew Point 36 °F    
Average Humidity 41    
Maximum Humidity 58    
Minimum Humidity 29    
Precipitation  
Precipitation 0.00 in - - ()
Sea Level Pressure  
Sea Level Pressure 30.22 in    
Wind  
Wind Speed 7 mph (East)    
Max Wind Speed 12 mph    
Max Gust Speed -    
Visibility 10 miles    
Events      
Averages and records for this station are not official NWS values.
T = Trace of Precipitation, MM = Missing Value Source: NWS Daily Summary

Daily Weather History Graph

Daily Weather History Graph

Search for Another Location

Airport or City:

Trip Planner

Search our weather history database for the weather conditions in past years. The results will help you decide how hot, cold, wet, or windy it might be!

Date:

Astronomy

Mar. 27, 2012 Rise Set
Actual Time 7:22 AM EDT 7:47 PM EDT
Civil Twilight 6:57 AM EDT 8:12 PM EDT
Nautical Twilight 6:27 AM EDT 8:42 PM EDT
Astronomical Twilight 5:57 AM EDT 9:12 PM EDT
Moon 10:03 AM EDT (3/27) No Moon Set
Length of Visible Light 13h 15m
Length of Day
12h 24m
Waxing Crescent, 22% of the Moon is Illuminated
Mar 27
Waxing Crescent
Mar 30
First Quarter
Apr 6
Full
Apr 13
Last Quarter
Apr 21
New

Hourly Weather History & Observations

Time (EDT) Temp. Dew Point Humidity Pressure Visibility Wind Dir Wind Speed Gust Speed Precip Events Conditions
12:53 AM 64.0 °F 46.0 °F 52% 30.06 in 10.0 mi ENE 5.8 mph - N/A   Clear
1:53 AM 63.0 °F 45.0 °F 52% 30.07 in 10.0 mi ENE 8.1 mph - N/A   Clear
2:53 AM 61.0 °F 45.0 °F 56% 30.09 in 10.0 mi East 5.8 mph - N/A   Clear
3:53 AM 59.0 °F 44.1 °F 58% 30.11 in 10.0 mi East 9.2 mph - N/A   Clear
4:53 AM 57.9 °F 41.0 °F 53% 30.14 in 10.0 mi ENE 10.4 mph - N/A   Clear
5:53 AM 55.9 °F 37.9 °F 51% 30.18 in 10.0 mi ENE 8.1 mph - N/A   Clear
6:53 AM 54.0 °F 32.0 °F 43% 30.22 in 10.0 mi NE 10.4 mph - N/A   Clear
7:53 AM 52.0 °F 30.9 °F 45% 30.26 in 10.0 mi NNE 10.4 mph - N/A   Clear
8:53 AM 54.0 °F 30.0 °F 40% 30.29 in 10.0 mi NE 11.5 mph - N/A   Clear
9:53 AM 55.9 °F 28.9 °F 36% 30.30 in 10.0 mi East 10.4 mph - N/A   Clear
10:53 AM 57.9 °F 30.0 °F 35% 30.31 in 10.0 mi ENE 6.9 mph - N/A   Clear
11:53 AM 59.0 °F 30.0 °F 33% 30.32 in 10.0 mi East 6.9 mph - N/A   Clear
12:53 PM 62.1 °F 30.9 °F 31% 30.29 in 10.0 mi Variable 5.8 mph - N/A   Clear
1:53 PM 64.0 °F 34.0 °F 33% 30.28 in 10.0 mi Calm Calm - N/A   Clear
2:53 PM 66.0 °F 34.0 °F 30% 30.25 in 10.0 mi Variable 6.9 mph - N/A   Clear
3:53 PM 68.0 °F 36.0 °F 31% 30.22 in 10.0 mi South 9.2 mph - N/A   Clear
4:53 PM 70.0 °F 37.0 °F 30% 30.22 in 10.0 mi Calm Calm - N/A   Clear
5:53 PM 70.0 °F 36.0 °F 29% 30.21 in 10.0 mi SSW 4.6 mph - N/A   Clear
6:53 PM 69.1 °F 36.0 °F 30% 30.20 in 10.0 mi SSE 6.9 mph - N/A   Clear
7:53 PM 66.9 °F 36.0 °F 32% 30.22 in 10.0 mi South 5.8 mph - N/A   Clear
8:53 PM 64.0 °F 37.9 °F 38% 30.22 in 10.0 mi Calm Calm - N/A   Clear
9:53 PM 62.1 °F 39.0 °F 43% 30.24 in 10.0 mi Calm Calm - N/A   Clear
10:53 PM 59.0 °F 39.9 °F 49% 30.25 in 10.0 mi Calm Calm - N/A   Clear
11:53 PM 57.9 °F 37.9 °F 47% 30.24 in 10.0 mi SSE 4.6 mph - N/A   Clear